Probability
0 0 0 0 0 0 0 0 0 0 0 0 0 0 0 0 0 0 0 0 0 0 0 0 0 0 0 0 0 0 0 0 0 0 0 0 0 0 0 0 0 0 0
0 0 0 0 0 0 0 0 1 1 1 0 0 0 0 0 0 0 0 0 0 0 0 0 0 0 0 0 0 0 0 0 0 0 0 0 0 0 0 0 0 0 0
0 0 0 0 0 0 0 0 2 4 3 1 0 0 0 0 0 0 0 0 0 0 0 0 0 0 0 0 0 0 0 0 0 0 0 0 0 0 0 0 0 0 0
0 0 0 0 0 0 0 0 2 4 4 1 0 0 0 0 0 0 0 0 0 0 0 0 0 0 0 0 0 0 0 0 0 0 0 0 0 0 0 0 0 0 0
0 0 1 1 0 0 0 0 1 3 2 1 0 0 0 0 0 0 0 0 0 0 0 0 0 0 0 0 0 0 0 0 0 0 0 0 0 0 0 0 0 0 0
0 0 1 1 0 0 0 0 0 1 1 0 0 0 0 0 0 0 0 0 0 0 0 0 0 0 0 0 0 0 0 0 0 0 0 0 0 0 0 0 0 0 0
0 0 1 1 0 0 0 0 0 0 0 0 0 0 0 0 0 0 0 0 0 0 0 0 0 0 0 0 0 0 0 0 0 0 0 0 0 0 0 0 0 0 0
0 0 0 0 0 0 0 0 0 0 0 0 0 0 0 0 0 0 0 0 0 0 0 0 0 0 0 0 0 0 0 0 0 0 0 0 0 0 0 0 0 0 0
0 0 0 0 0 0 0 0 0 0 0 0 0 0 0 0 0 0 0 0 0 0 0 0 0 0 0 0 0 0 0 0 0 0 0 0 0 0 0 0 0 0 0
1 1 1 0 0 0 0 0 0 0 0 0 0 0 0 0 0 0 0 0 0 0 0 0 0 0 0 0 0 0 0 0 0 0 0 0 0 0 0 0 0 0 0
5 4 3 2 0 0 0 0 0 0 0 0 0 0 0 0 0 0 0 0 0 0 0 0 0 0 0 0 0 0 0 0 0 0 0 0 0 0 0 0 0 0 0
12 11 9 6 2 1 1 1 0 0 0 0 0 0 0 0 0 0 0 0 0 0 0 0 0 0 0 0 0 0 0 0 0 0 0 0 0 0 0 0 0 0 0
18 16 13 10 6 4 3 2 1 0 0 0 0 0 0 0 0 1 2 1 0 0 0 0 0 0 0 0 0 0 0 0 0 0 0 0 0 0 0 0 0 0 0
21 19 16 12 9 7 6 4 2 1 0 0 0 0 0 0 1 2 3 2 1 0 0 0 0 0 0 0 0 0 0 0 0 0 0 0 0 0 0 0 0 0 0
23 20 17 15 14 12 9 7 4 2 1 0 0 0 0 0 1 2 3 3 2 1 0 0 0 0 0 0 0 0 0 0 0 0 0 0 0 0 0 0 0 0 0
25 22 19 19 18 16 12 9 6 4 2 0 0 0 0 0 1 2 3 3 3 2 1 1 0 0 0 0 0 0 0 0 0 0 0 0 0 0 0 0 0 0 0
28 25 22 22 22 20 15 11 8 4 3 1 2 2 1 0 1 2 3 3 3 3 3 2 1 0 0 0 0 0 0 0 0 0 0 0 0 0 0 0 0 0 0
29 27 26 24 25 23 19 16 11 7 5 5 6 5 3 3 3 2 2 3 3 3 3 2 1 0 0 0 0 0 0 0 0 0 0 0 0 0 0 0 0 0 0
28 29 29 28 28 26 22 19 15 11 10 9 10 9 7 7 6 3 3 4 4 4 4 3 1 1 0 0 0 0 0 0 0 0 0 0 0 0 0 0 0 0 0
26 28 31 32 33 31 26 22 18 15 14 13 12 10 9 9 8 7 5 6 6 5 6 4 3 2 1 0 0 0 0 0 0 0 0 0 0 0 0 0 0 0 0
26 29 33 37 40 39 34 29 25 21 18 15 11 10 11 11 11 10 8 9 9 8 7 6 4 3 1 0 0 0 0 0 0 0 0 0 0 0 0 0 0 0 0
31 33 37 41 44 44 41 38 34 28 21 15 12 13 14 15 14 12 10 11 12 11 9 8 6 4 3 2 2 2 1 0 0 0 0 0 0 0 0 0 0 0 0
32 35 39 42 43 43 42 41 37 31 24 19 18 18 18 17 16 14 11 11 12 11 8 7 6 6 5 4 4 4 2 0 0 0 0 0 0 0 0 0 0 0 0
28 32 37 38 39 38 37 37 35 29 25 24 25 24 21 18 16 14 11 11 11 10 7 5 4 5 6 6 7 6 3 1 1 1 0 0 0 0 0 0 0 0 1
25 29 33 35 36 34 32 31 30 27 25 25 25 24 23 20 16 13 11 11 10 9 8 6 4 5 6 7 7 7 6 5 3 2 1 0 0 0 0 1 1 1 2
23 26 31 34 36 34 29 27 28 27 25 24 21 20 23 22 17 12 11 11 10 10 9 7 6 5 6 8 7 6 7 7 4 2 2 1 0 0 1 2 2 2 3
Wind_Speed
14 16 15 13 14 14 14 15 15 15 15 15 14 13 13 13 12 12 11 12 12 12 12 12 12 12 13 13 13 14 14 14 14 14 15 15 15 14 14 13 13 15 15
17 18 16 14 14 14 14 15 15 15 15 14 14 13 13 12 12 11 11 11 12 12 12 12 12 13 13 13 13 13 13 13 13 14 15 15 14 13 11 10 11 13 14
18 19 17 14 14 14 14 14 15 15 14 14 13 13 12 12 12 11 11 12 12 12 12 13 13 13 13 13 13 13 13 13 12 12 11 12 13 13 12 14 15 14 14
19 18 17 16 15 15 14 14 14 14 14 14 13 12 12 12 11 11 12 12 12 12 13 13 13 13 13 13 13 13 13 12 10 8 7 10 12 13 13 13 14 14 13
17 16 17 17 16 15 14 14 14 14 14 13 13 12 12 11 11 11 12 12 12 12 12 13 13 13 12 12 13 13 12 11 7 5 10 10 11 12 12 13 13 13 13
17 17 19 16 16 15 14 14 14 14 13 13 12 12 11 11 11 11 12 12 12 12 12 12 12 12 12 12 12 12 11 9 8 9 9 9 11 11 12 12 13 12 12
17 16 19 17 16 15 14 14 14 13 13 12 12 11 11 11 11 11 12 12 12 12 12 12 12 11 11 11 11 10 9 4 5 9 8 10 12 11 11 11 12 12 12
17 17 18 17 16 15 14 14 13 13 12 12 12 11 11 11 11 11 11 11 12 11 11 11 11 10 10 11 10 9 7 4 7 8 8 10 11 10 11 11 11 11 11
16 16 16 17 15 15 14 13 13 12 12 11 11 11 11 11 10 11 11 11 11 11 11 10 10 9 10 10 10 9 6 2 4 6 8 9 10 9 10 10 10 10 10
14 15 15 15 15 14 14 13 13 12 11 11 11 11 10 11 10 10 11 10 11 10 10 9 9 8 9 9 9 9 7 5 5 7 6 10 10 9 9 9 9 10 10
13 13 14 14 13 13 13 14 13 12 11 11 11 11 10 9 10 9 11 11 10 10 9 8 8 7 8 9 9 8 7 3 6 5 6 11 9 8 9 9 9 9 9
15 14 12 13 12 11 10 11 9 10 10 9 8 10 7 5 5 7 12 9 9 9 9 8 7 8 8 8 9 9 4 4 5 5 8 10 8 8 8 8 8 8 8
15 14 13 12 12 11 8 8 6 5 7 7 8 8 5 5 5 6 6 8 8 9 8 9 8 5 4 3 4 4 3 3 3 4 9 9 8 8 8 8 8 7 8
16 15 13 13 11 10 8 7 7 6 6 6 8 8 6 4 4 5 4 5 5 4 4 5 3 4 3 4 3 3 4 2 3 4 8 9 7 7 8 8 7 7 7
15 14 13 13 12 10 8 6 7 6 6 7 6 6 6 5 5 5 3 3 3 4 5 4 4 4 3 4 4 4 3 2 3 3 7 9 7 7 7 7 7 7 7
15 14 13 13 12 11 9 7 6 6 5 6 6 8 7 5 5 5 5 4 3 3 3 3 4 4 4 3 3 3 3 3 3 3 5 8 8 7 7 7 7 8 8
15 14 14 13 13 12 11 10 7 6 7 6 6 7 7 6 6 5 4 5 4 4 4 3 4 4 4 4 4 3 3 3 4 4 4 4 7 9 8 7 7 7 8
15 15 14 12 13 13 10 9 7 6 7 6 6 7 8 6 6 5 4 5 4 4 4 4 4 4 4 3 3 3 3 4 4 5 4 4 4 6 9 9 8 7 8
15 15 15 14 14 13 12 9 8 6 6 6 6 6 7 7 7 6 4 3 5 4 4 4 4 4 3 3 4 4 3 4 4 5 4 5 5 4 5 10 10 8 9
14 14 14 14 13 12 10 8 7 7 7 6 6 7 8 7 8 7 5 5 6 5 4 4 3 3 3 3 4 3 4 4 4 4 5 5 5 6 6 6 8 10 11
13 14 14 14 13 11 9 9 9 8 7 7 7 8 9 8 8 7 5 6 6 5 5 6 5 6 5 4 3 4 4 6 5 4 5 5 6 6 6 6 6 5 7
14 14 14 15 14 13 10 8 7 7 7 6 6 7 9 9 9 8 7 6 6 5 6 6 5 5 4 5 4 3 4 5 6 6 5 6 6 6 7 8 7 6 6
14 15 13 15 14 14 12 9 7 6 6 7 8 7 9 10 10 8 8 8 6 7 6 7 7 7 5 5 5 4 3 3 4 5 6 5 5 5 6 6 8 8 8
12 13 13 14 14 14 13 12 13 10 10 9 8 7 8 10 10 10 9 9 8 7 6 8 7 6 6 5 5 5 5 3 3 3 6 6 7 7 7 6 7 8 8
11 12 12 13 13 14 13 13 13 11 9 7 7 8 8 8 10 10 10 9 8 7 7 7 6 7 6 7 5 5 6 4 6 5 3 4 5 6 6 7 6 6 7
8 10 11 12 13 13 13 13 13 13 11 10 10 9 8 7 8 10 10 9 9 8 7 8 7 9 7 6 6 5 5 5 5 5 5 5 4 4 5 5 6 6 6
Wind_Direction
147 137 138 139 136 133 133 133 133 131 130 129 128 126 122 118 115 113 110 109 109 107 106 108 109 108 109 109 109 108 108 108 108 109 109 107 107 107 109 116 121 105 107
142 137 141 140 137 134 132 132 132 132 132 130 129 127 122 119 117 115 112 111 109 107 106 107 108 109 110 110 111 110 109 109 111 112 115 112 107 106 104 96 86 104 114
142 138 145 141 138 134 132 131 132 133 132 130 128 127 124 121 119 116 114 111 110 109 108 108 108 108 108 109 110 110 108 108 112 123 136 119 110 104 100 98 101 110 111
142 143 146 141 140 137 134 133 133 132 131 130 129 127 124 122 120 118 114 112 112 111 110 110 110 109 109 109 109 110 109 110 119 159 130 109 110 105 105 106 109 110 111
142 141 137 146 143 140 137 135 134 134 133 133 131 130 126 125 123 120 116 115 113 112 112 111 112 111 112 111 111 112 112 117 147 154 96 99 101 107 107 108 110 111 112
145 145 139 149 145 143 141 139 137 137 136 135 134 132 129 126 124 122 117 116 114 113 112 112 113 113 113 113 113 114 118 141 180 105 108 109 106 110 110 110 110 111 112
150 145 142 151 147 146 145 143 140 139 139 137 136 133 130 127 125 122 119 117 116 114 114 114 115 116 116 117 117 119 126 174 110 104 111 102 102 112 112 112 111 111 110
152 147 141 151 150 149 148 146 143 143 141 140 137 135 132 129 125 124 122 121 118 116 116 115 116 117 120 121 121 125 139 206 118 108 101 99 105 117 115 115 116 115 113
155 148 150 155 154 154 152 149 147 146 144 141 139 136 135 130 126 126 125 124 122 121 120 118 117 119 120 124 129 131 135 275 122 112 111 106 113 120 119 120 123 121 119
160 156 156 159 157 161 158 154 151 149 147 145 142 140 136 132 131 132 139 126 126 125 125 123 121 121 124 129 133 134 151 217 126 121 111 109 120 123 123 125 127 123 122
167 163 164 160 162 166 160 153 160 155 153 156 152 149 162 159 147 155 120 127 131 131 130 129 127 130 142 142 141 149 185 176 120 107 97 110 132 133 131 129 129 128 126
172 173 168 167 163 168 160 157 168 168 161 177 157 162 170 142 139 123 118 134 136 136 139 135 138 165 197 156 152 180 186 147 132 122 107 124 139 142 138 137 137 137 134
174 176 171 168 166 173 162 166 168 166 159 170 161 165 154 152 149 141 147 149 155 163 162 152 179 187 167 124 153 166 146 147 134 122 120 139 149 152 148 146 147 147 143
178 180 175 169 173 177 172 170 172 169 168 168 161 177 163 165 161 145 156 153 163 161 158 171 173 159 144 144 152 142 153 174 131 109 123 146 157 160 159 157 159 156 154
179 180 178 174 174 175 176 186 180 174 174 165 163 174 175 170 170 151 152 158 168 151 165 182 176 156 167 171 175 158 159 147 129 133 129 151 163 170 170 169 171 170 169
182 181 178 180 177 177 180 189 182 178 177 173 174 170 184 179 165 164 167 171 171 175 163 177 165 172 188 170 182 161 178 153 141 162 147 153 169 178 183 183 184 183 183
182 181 180 181 180 183 187 189 187 186 181 185 173 171 184 188 173 184 175 182 177 169 166 188 176 184 186 185 183 177 173 174 156 171 167 163 167 179 191 194 195 194 193
182 182 183 184 183 186 188 190 190 194 188 187 181 176 186 189 188 199 190 188 174 189 187 177 201 198 193 197 181 193 169 167 172 180 182 185 185 176 181 192 200 203 205
185 182 184 189 186 186 186 186 193 190 196 193 189 187 184 192 193 207 204 185 192 197 201 207 180 212 192 200 190 183 190 185 178 192 196 200 191 200 184 171 192 203 210
186 184 186 189 186 184 185 184 189 194 196 199 197 194 192 196 197 209 206 196 209 200 203 213 186 206 210 206 223 175 192 192 201 191 209 205 201 203 209 188 190 194 205
186 187 187 189 185 183 183 185 188 192 194 198 202 200 201 205 199 208 220 193 214 208 211 206 204 197 209 202 216 203 199 202 206 201 212 215 206 207 213 206 218 211 191
188 191 189 190 187 187 188 188 190 189 194 200 210 201 207 205 205 203 212 211 208 209 211 214 215 224 204 198 225 219 210 196 209 208 202 212 218 208 210 208 214 217 238
190 194 193 191 187 188 186 185 185 186 194 198 206 205 209 207 207 215 208 216 211 216 207 212 209 223 220 208 224 237 239 223 195 191 206 212 216 222 224 213 213 213 222
193 192 191 188 190 190 188 190 189 194 200 203 202 200 204 209 210 210 214 214 215 219 207 217 208 220 226 222 210 237 266 317 261 200 197 198 208 220 232 233 221 213 217
193 190 189 190 192 193 195 194 196 202 206 203 201 201 208 208 212 212 213 214 213 220 217 228 212 226 223 231 224 218 227 230 248 261 235 211 208 215 215 224 234 230 219
187 188 186 190 194 195 198 200 203 206 205 203 204 200 204 209 212 213 214 214 216 219 214 218 219 220 231 234 240 235 229 231 235 240 245 236 229 218 212 222 231 230 226